Location: *
(10.5081°N, 66.9194°W)
Time: 04:43:03
(UTC+00:00)

Cosmos 967 Rocket - Pass Details

Date: 30 March 2020
Orbit: 943 x 995 km, 65.8° (Epoch: 24 May)

Event Time Altitude Azimuth Distance (km) Brightness Sun altitude
Rises 23:31:47 0° 192° (SSW) 3,633 7.6 -13.9°
Reaches altitude 10° 23:34:21 10° 189° (S) 2,694 6.8 -14.5°
Maximum altitude 23:40:32 60° 110° (ESE) 1,106 4.5 -16.0°
Drops below altitude 10° 23:46:48 10° 32° (NNE) 2,729 6.6 -17.5°
Sets 23:49:25 0° 28° (NNE) 3,683 7.3 -18.2°
